Location: Newark
(32.9167°N, 112.9667°W)
Time: 01:51:17
(UTC+00:00)

Hubble Space Telescope - Visible Passes

Search period start: 25 March 2019 00:00
Search period end: 04 April 2019 00:00
Orbit: 537 x 540 km, 28.5° (Epoch: 24 March)

Date Brightness Start Highest point End Pass type
(mag) Time Alt. Az. Time Alt. Az. Time Alt. Az.
25 Mar 2.3 02:33:38 10° SSW 02:36:48 21° SSE 02:38:49 15° SE visible
25 Mar 3.5 04:13:42 10° WSW 04:14:11 13° WSW 04:14:11 13° WSW visible
26 Mar 2.1 02:22:50 10° SW 02:26:14 25° SSE 02:29:10 12° ESE visible
26 Mar 3.0 04:03:09 10° WSW 04:04:32 19° WSW 04:04:32 19° WSW visible
27 Mar 2.0 02:12:06 10° SW 02:15:42 29° SSE 02:19:17 10° ESE visible
27 Mar 2.4 03:52:37 10° WSW 03:54:48 27° SW 03:54:48 27° SW visible
28 Mar 1.8 03:42:06 10° WSW 03:45:02 37° SW 03:45:02 37° SW visible
29 Mar 1.4 03:31:36 10° WSW 03:35:13 43° SSW 03:35:13 43° SSW visible
30 Mar 1.3 03:21:07 10° WSW 03:25:03 42° S 03:25:23 41° S visible
31 Mar 1.5 03:10:39 10° WSW 03:14:31 39° S 03:15:32 33° SSE visible
01 Apr 1.7 03:00:12 10° WSW 03:04:00 36° S 03:05:41 25° SE visible
02 Apr 1.9 02:49:46 10° WSW 02:53:28 32° SSW 02:55:50 18° SE visible
03 Apr 2.2 02:39:21 10° WSW 02:42:55 28° SSW 02:46:01 12° SE visible
